Main page
METAR-TAF:

METAR-TAF

Airports :

Antrim County Airport

Bellaire, Michigan, United States

latitude: 44-59-18N, longitude: 085-11-54W, elevation: 190 m

Current weather observation

The report was made 28 minutes ago, at 11:35 UTC
Calm wind
Temperature 11°C
Humidity 87%
Pressure 1023 hPa
Visibility: 16.1 km
Clear sky

METAR: KACB 151135Z AUTO 00000KT 10SM CLR 11/09 A3022 RMK AO2 T01080093

Time: 08:03 (12:03 UTC)


TAF: missing

Weather observations and forecasts of more than 4000 airports (METAR and TAF reports).

The available stations are represented by yellow and red dots on the map.

Hover mouse over dot to see the name of the station.

Then click to see weather observations and forecasts.

To change the map : click on the green buttons with a black cross to zoom in, on the green button with a dash to zoom out, or on the green arrows for adjacent maps.


METAR-TAF: